Home   Weather   Wheaton   Past weeks
Flag for USA

Past Weather in Wheaton, Illinois, USA — Yesterday and Last 2 Weeks

Now
79 °F

Clear.


Feels Like: 82 °F
Forecast: 94 / 76 °F
Wind: No wind

Location: Dupage Airport

Current Time: Jul 18, 2019 at 12:04:00 am

Latest Report: Jul 17, 2019 at 10:52 pm


Visibility: 10 mi

Pressure: 29.87 "Hg

Humidity: 74%

Dew Point: 70 °F

Location of WheatonLocation

Past Weather in Wheaton — Graph

°F

Wheaton Temperature Yesterday

Maximum temperature yesterday: 94 °F (at 3:52 pm)
Minimum temperature yesterday: 73 °F (at 3:19 am)
Average temperature yesterday: 83 °F

High & Low Weather Summary for the Past Weeks

 TemperatureHumidityPressure
High95 °F (Jul 10, 2:52 pm)94% (Jul 17, 3:19 am)30.11 "Hg (Jul 17, 3:19 am)
Low59 °F (Jul 8, 4:52 am)28% (Jul 8, 2:52 pm)29.83 "Hg (Jul 3, 2:52 am)
Average78 °F66%29.96 "Hg
* Reported Jul 2 10:52 pm — Jul 17 10:52 pm, Wheaton. Weather by CustomWeather, © 2019

Note: Actual official high and low records may vary slightly from our data, if they occured in-between our weather recording intervals... More about our weather records

Advertising

Wheaton Weather History for the Previous 24 Hours

Scroll right to see more
 ConditionsComfort  
Time TempWeatherWind HumidityBarometerVisibility
10:52 pm
Wed, Jul 17
79 °FClear.No wind74%29.87 "Hg10 mi
9:52 pm81 °FPassing clouds.6 mph69%29.86 "Hg10 mi
8:52 pm81 °FPassing clouds.7 mph69%29.85 "Hg10 mi
7:52 pm82 °FSunny.8 mph67%29.85 "Hg10 mi
6:52 pm87 °FSunny.5 mph59%29.85 "Hg10 mi
5:52 pm89 °FPassing clouds.8 mph53%29.88 "Hg10 mi
5:31 pm89 °FPassing clouds.12 mph53%29.89 "Hg10 mi
5:16 pm89 °FThunderstorms. Sunny.13 mph53%29.90 "Hg10 mi
4:52 pm92 °FSunny.15 mph47%29.88 "Hg10 mi
3:52 pm94 °FBroken clouds.10 mph46%29.89 "Hg10 mi
2:52 pm91 °FScattered clouds.6 mph49%29.88 "Hg10 mi
1:52 pm91 °FSunny.5 mph49%29.90 "Hg10 mi
12:52 pm89 °FScattered clouds.3 mph52%29.91 "Hg10 mi
11:52 am90 °FPassing clouds.3 mph52%29.92 "Hg10 mi
10:52 am88 °FSunny.3 mph59%29.91 "Hg10 mi
9:52 am85 °FSunny.No wind65%29.91 "Hg10 mi
8:52 am82 °FSunny.5 mph72%29.91 "Hg10 mi
7:52 am78 °FSunny.6 mph76%29.89 "Hg10 mi
6:52 am76 °FSunny.3 mph85%29.88 "Hg10 mi
5:52 am75 °FPassing clouds.No wind88%29.88 "Hg9 mi
4:52 am73 °FClear.3 mph88%29.87 "Hg10 mi
3:52 am74 °FClear.No wind91%29.86 "Hg8 mi
3:19 am73 °FFog.No wind94%29.87 "Hg5 mi
2:52 am74 °FFog.No wind91%29.85 "Hg4 mi
1:52 am75 °FPassing clouds.No wind90%29.86 "Hg9 mi
12:52 am75 °FOvercast.No wind88%29.87 "Hg10 mi
Weather by CustomWeather, © 2019

See weather overview